User: anonymous   Login
Location: Unspecified
(42.3650°N, 71.1030°W)
Time: 00:19:54
(UTC+00:00)
Language:

Explorer 7 - Orbit

View from above orbital plane
View from above orbital plane
View from above satellite
View from above satellite

Ground track
Ground track

The orbit data is extracted from the following two-line orbital elements,

1    22U 59009A   25190.80012176  .00007015  00000-0  30567-3 0  9996
2    22  50.2737 341.0168 0091209 193.7538 166.0932 15.19585628503083
Epoch (UTC): 09 July 2025 19:12:10
Eccentricity: 0.0091209
inclination: 50.2737°
perigee height: 444 km
apogee height: 570 km
right ascension of ascending node: 341.0168°
argument of perigee: 193.7538°
revolutions per day: 15.19585628
mean anomaly at epoch: 166.0932°
orbit number at epoch: 50308

The dashed part of the orbit path shows where the satellite is in the earth's shadow,  

DLR